Hourly Data Report for October 19, 2000

SHERBROOKE A
QUEBEC

45°26'00.000" N
71°41'00.000" W
241.40 m
7028124
71610
YSC

Download Data

Hourly Data (October 2000)
Hourly Data Report for October 19, 2000
TIME
LST
Temp Definition
°C
Dew Point Definition
°C
Rel Hum Definition
%
Precip. Amount Definition
mm

Wind Dir Definition
10's deg

Wind Spd Definition
km/h
Visibility Definition
km
Stn Press Definition
kPa
Hmdx Definition


Wind Chill Definition


Weather Definition


00:00 7.9 7.9 100   28 11 6.4 98.55      
01:00 7.6 7.4 99     0 5.6 98.52      
02:00 7.5 7.4 99   22 4 3.1 98.45      
03:00 7.4 7.4 100     0 2.7 98.36      
04:00 7.2 7.2 100   28 6 0.5 98.32      
05:00 7.1 7.1 100   23 6 1.4 98.29      
06:00 7.2 7.2 100   25 6 2.3 98.32      
07:00 7.5 7.5 100   28 6 2.0 98.32     Fog
08:00 7.6 7.6 100   30 15 4.0 98.32     Fog
09:00 7.6 7.0 96   30 13 8.0 98.36     Fog
10:00 7.3 6.1 92   30 15 19.3 98.32     Mostly Cloudy
11:00 8.3 4.9 79   32 13 24.1 98.29     Mostly Cloudy
12:00 9.0 4.8 75   30 11 24.1 98.26     Mostly Cloudy
13:00 9.4 3.0 64   32 24 24.1 98.26     Mostly Cloudy
14:00 10.5 3.1 60   30 26 24.1 98.29     Mainly Clear
15:00 10.0 2.2 58   31 13 24.1 98.36     Mainly Clear
16:00 9.9 1.4 55   29 17 24.1 98.36     Mainly Clear
17:00 8.9 1.2 58   28 17 15.0 98.42      
18:00 8.6 1.6 61   28 17 15.0 98.52      
19:00 7.6 1.8 67   29 20 15.0 98.59      
20:00 6.1 1.9 74   26 6 15.0 98.69      
21:00 5.3 2.2 80     0 15.0 98.72      
22:00 4.0 1.6 84   24 7 15.0 98.75      
23:00 2.9 1.2 89   26 7 15.0 98.79      

Notes on Data Quality.

Legend

  • E = Estimated
  • M = Missing
  • NA = Not Available*
  • [empty] = Indicates an unobserved value
Date modified: